Time,TemperatureF,DewpointF,PressureIn,WindDirection,WindDirectionDegrees,WindSpeedMPH,WindSpeedGustMPH,Humidity,HourlyPrecipIn,Conditions,Clouds,dailyrainin,SoftwareType,DateUTC
2013-07-01 00:01:00,68.1,63.4,29.91,NW,323,3.0,3.0,85,0.00,,,0.00,WUHU216DAVISVP2,2013-07-01 04:01:00,
2013-07-01 00:06:00,68.1,63.4,29.91,NW,319,1.0,3.0,85,0.00,,,0.00,WUHU216DAVISVP2,2013-07-01 04:06:00,
2013-07-01 00:11:00,68.1,63.4,29.91,North,353,0.0,3.0,85,0.00,,,0.00,WUHU216DAVISVP2,2013-07-01 04:11:00,
2013-07-01 00:16:00,68.1,63.4,29.92,NE,49,2.0,3.0,85,0.00,,,0.00,WUHU216DAVISVP2,2013-07-01 04:16:00,
2013-07-01 00:21:00,68.1,63.4,29.92,NW,322,1.0,3.0,85,0.00,,,0.00,WUHU216DAVISVP2,2013-07-01 04:21:00,
2013-07-01 00:26:00,68.1,63.4,29.92,NNW,330,2.0,3.0,85,0.00,,,0.00,WUHU216DAVISVP2,2013-07-01 04:26:00,
2013-07-01 00:31:00,67.9,63.2,29.92,NW,322,1.0,3.0,85,0.00,,,0.00,WUHU216DAVISVP2,2013-07-01 04:31:00,
2013-07-01 00:36:00,67.8,63.5,29.92,NNW,335,1.0,3.0,86,0.00,,,0.00,WUHU216DAVISVP2,2013-07-01 04:36:00,
2013-07-01 00:41:00,67.7,63.4,29.91,NW,323,0.0,3.0,86,0.00,,,0.00,WUHU216DAVISVP2,2013-07-01 04:41:00,
2013-07-01 00:46:00,67.5,63.5,29.91,NNW,336,0.0,3.0,87,0.00,,,0.00,WUHU216DAVISVP2,2013-07-01 04:46:00,
2013-07-01 00:51:00,67.4,63.4,29.91,NNW,330,1.0,3.0,87,0.00,,,0.00,WUHU216DAVISVP2,2013-07-01 04:51:00,
2013-07-01 00:56:00,67.3,63.3,29.92,NNW,335,0.0,2.0,87,0.00,,,0.00,WUHU216DAVISVP2,2013-07-01 04:56:00,
2013-07-01 01:01:00,67.2,63.2,29.92,NNW,328,1.0,2.0,87,0.00,,,0.00,WUHU216DAVISVP2,2013-07-01 05:01:00,
2013-07-01 01:06:00,67.2,63.2,29.92,NNW,328,0.0,2.0,87,0.00,,,0.00,WUHU216DAVISVP2,2013-07-01 05:06:00,
2013-07-01 01:11:00,67.1,63.4,29.91,NW,323,0.0,2.0,88,0.00,,,0.00,WUHU216DAVISVP2,2013-07-01 05:11:00,
2013-07-01 01:16:00,67.1,63.4,29.91,NNW,343,0.0,2.0,88,0.00,,,0.00,WUHU216DAVISVP2,2013-07-01 05:16:00,
2013-07-01 01:21:00,67.0,63.3,29.91,NNW,335,0.0,2.0,88,0.00,,,0.00,WUHU216DAVISVP2,2013-07-01 05:21:00,
2013-07-01 01:26:00,66.9,63.6,29.91,NW,318,0.0,2.0,89,0.00,,,0.00,WUHU216DAVISVP2,2013-07-01 05:26:00,
2013-07-01 01:31:00,66.8,63.5,29.91,NNW,327,0.0,1.0,89,0.00,,,0.00,WUHU216DAVISVP2,2013-07-01 05:31:00,
2013-07-01 01:36:00,66.7,63.4,29.91,NNW,330,0.0,2.0,89,0.00,,,0.00,WUHU216DAVISVP2,2013-07-01 05:36:00,
2013-07-01 01:41:00,66.6,63.2,29.92,NNW,330,0.0,2.0,89,0.00,,,0.00,WUHU216DAVISVP2,2013-07-01 05:41:00,
2013-07-01 01:46:00,66.6,63.6,29.92,SSW,212,0.0,2.0,90,0.00,,,0.00,WUHU216DAVISVP2,2013-07-01 05:46:00,
2013-07-01 01:51:00,66.5,63.5,29.92,SW,233,0.0,2.0,90,0.00,,,0.00,WUHU216DAVISVP2,2013-07-01 05:51:00,
2013-07-01 01:56:00,66.5,63.5,29.91,NW,322,1.0,2.0,90,0.00,,,0.00,WUHU216DAVISVP2,2013-07-01 05:56:00,
2013-07-01 02:01:00,66.5,63.5,29.91,NW,322,0.0,2.0,90,0.00,,,0.00,WUHU216DAVISVP2,2013-07-01 06:01:00,
2013-07-01 02:06:00,66.4,63.4,29.91,NNW,328,0.0,2.0,90,0.00,,,0.00,WUHU216DAVISVP2,2013-07-01 06:06:00,
2013-07-01 02:11:00,66.4,63.7,29.91,NNW,327,0.0,2.0,91,0.00,,,0.00,WUHU216DAVISVP2,2013-07-01 06:11:00,
2013-07-01 02:16:00,66.3,63.6,29.91,NNW,327,0.0,1.0,91,0.00,,,0.00,WUHU216DAVISVP2,2013-07-01 06:16:00,
2013-07-01 02:21:00,66.3,63.6,29.90,NNW,328,0.0,1.0,91,0.00,,,0.00,WUHU216DAVISVP2,2013-07-01 06:21:00,
2013-07-01 02:26:00,66.2,63.8,29.91,NW,312,0.0,1.0,92,0.00,,,0.00,WUHU216DAVISVP2,2013-07-01 06:26:00,
2013-07-01 02:31:00,66.2,63.8,29.91,NW,312,0.0,1.0,92,0.00,,,0.00,WUHU216DAVISVP2,2013-07-01 06:31:00,
2013-07-01 02:36:00,66.2,63.8,29.91,NW,312,0.0,1.0,92,0.00,,,0.00,WUHU216DAVISVP2,2013-07-01 06:36:00,
2013-07-01 02:41:00,66.1,63.7,29.91,NW,324,0.0,2.0,92,0.00,,,0.00,WUHU216DAVISVP2,2013-07-01 06:41:00,
2013-07-01 02:46:00,66.0,63.9,29.91,NNW,330,0.0,2.0,93,0.00,,,0.00,WUHU216DAVISVP2,2013-07-01 06:46:00,
2013-07-01 02:51:00,66.0,63.9,29.90,North,358,1.0,2.0,93,0.00,,,0.00,WUHU216DAVISVP2,2013-07-01 06:51:00,
2013-07-01 02:56:00,65.9,63.8,29.90,NNW,328,0.0,2.0,93,0.00,,,0.00,WUHU216DAVISVP2,2013-07-01 06:56:00,
2013-07-01 03:01:00,65.9,63.8,29.90,NNW,338,1.0,2.0,93,0.00,,,0.00,WUHU216DAVISVP2,2013-07-01 07:01:00,
2013-07-01 03:06:00,65.9,64.1,29.90,NNW,338,1.0,3.0,94,0.00,,,0.00,WUHU216DAVISVP2,2013-07-01 07:06:00,
2013-07-01 03:11:00,65.9,64.1,29.90,NNW,338,0.0,3.0,94,0.00,,,0.00,WUHU216DAVISVP2,2013-07-01 07:11:00,
2013-07-01 03:16:00,65.9,64.1,29.90,NNW,338,0.0,3.0,94,0.00,,,0.00,WUHU216DAVISVP2,2013-07-01 07:16:00,
2013-07-01 03:21:00,65.9,64.1,29.90,NNE,26,0.0,3.0,94,0.00,,,0.00,WUHU216DAVISVP2,2013-07-01 07:21:00,
2013-07-01 03:26:00,65.9,64.1,29.90,NNE,25,0.0,3.0,94,0.00,,,0.00,WUHU216DAVISVP2,2013-07-01 07:26:00,
2013-07-01 03:31:00,66.0,64.2,29.91,NE,49,0.0,3.0,94,0.00,,,0.00,WUHU216DAVISVP2,2013-07-01 07:31:00,
2013-07-01 03:36:00,66.0,64.2,29.91,NNE,33,0.0,3.0,94,0.00,,,0.00,WUHU216DAVISVP2,2013-07-01 07:36:00,
2013-07-01 03:41:00,66.0,64.2,29.90,NNW,327,1.0,3.0,94,0.00,,,0.00,WUHU216DAVISVP2,2013-07-01 07:41:00,
2013-07-01 03:46:00,66.0,64.2,29.90,NNW,327,0.0,2.0,94,0.00,,,0.00,WUHU216DAVISVP2,2013-07-01 07:46:00,
2013-07-01 03:51:00,66.0,64.2,29.90,NNW,328,0.0,2.0,94,0.00,,,0.00,WUHU216DAVISVP2,2013-07-01 07:51:00,
2013-07-01 03:56:00,66.1,64.6,29.90,NNW,331,0.0,2.0,95,0.00,,,0.00,WUHU216DAVISVP2,2013-07-01 07:56:00,
2013-07-01 04:01:00,66.2,64.4,29.90,NNW,327,1.0,2.0,94,0.00,,,0.00,WUHU216DAVISVP2,2013-07-01 08:01:00,
2013-07-01 04:06:00,66.2,64.4,29.90,NNW,340,1.0,2.0,94,0.00,,,0.00,WUHU216DAVISVP2,2013-07-01 08:06:00,
2013-07-01 04:11:00,66.3,64.5,29.91,NNW,330,2.0,2.0,94,0.00,,,0.00,WUHU216DAVISVP2,2013-07-01 08:11:00,
2013-07-01 04:16:00,66.3,64.5,29.91,NNE,33,0.0,3.0,94,0.00,,,0.00,WUHU216DAVISVP2,2013-07-01 08:16:00,
2013-07-01 04:21:00,66.3,64.5,29.91,NNE,22,1.0,3.0,94,0.00,,,0.00,WUHU216DAVISVP2,2013-07-01 08:21:00,
2013-07-01 04:26:00,66.2,64.4,29.91,NNW,328,1.0,3.0,94,0.00,,,0.00,WUHU216DAVISVP2,2013-07-01 08:26:00,
2013-07-01 04:31:00,66.2,64.4,29.91,NE,39,1.0,3.0,94,0.00,,,0.00,WUHU216DAVISVP2,2013-07-01 08:31:00,
2013-07-01 04:36:00,66.2,64.4,29.91,NNE,20,0.0,3.0,94,0.00,,,0.00,WUHU216DAVISVP2,2013-07-01 08:36:00,
2013-07-01 04:41:00,66.2,64.4,29.91,NNW,331,1.0,3.0,94,0.00,,,0.00,WUHU216DAVISVP2,2013-07-01 08:41:00,
2013-07-01 04:46:00,66.1,64.3,29.92,NNW,334,0.0,3.0,94,0.00,,,0.00,WUHU216DAVISVP2,2013-07-01 08:46:00,
2013-07-01 04:51:00,66.1,64.3,29.92,NNE,20,0.0,3.0,94,0.00,,,0.00,WUHU216DAVISVP2,2013-07-01 08:51:00,
2013-07-01 04:56:00,66.1,64.3,29.92,NE,45,0.0,2.0,94,0.00,,,0.00,WUHU216DAVISVP2,2013-07-01 08:56:00,
2013-07-01 05:01:00,66.0,64.2,29.92,NNE,32,2.0,3.0,94,0.00,,,0.00,WUHU216DAVISVP2,2013-07-01 09:01:00,
2013-07-01 05:06:00,66.1,64.3,29.92,North,349,1.0,3.0,94,0.00,,,0.00,WUHU216DAVISVP2,2013-07-01 09:06:00,
2013-07-01 05:11:00,66.1,64.3,29.92,NNE,27,0.0,4.0,94,0.00,,,0.00,WUHU216DAVISVP2,2013-07-01 09:11:00,
2013-07-01 05:16:00,66.2,64.1,29.93,NNE,26,0.0,4.0,93,0.00,,,0.00,WUHU216DAVISVP2,2013-07-01 09:16:00,
2013-07-01 05:21:00,66.2,64.1,29.93,NNE,18,0.0,4.0,93,0.00,,,0.00,WUHU216DAVISVP2,2013-07-01 09:21:00,
2013-07-01 05:26:00,66.2,64.1,29.93,NNE,18,1.0,4.0,93,0.00,,,0.00,WUHU216DAVISVP2,2013-07-01 09:26:00,
2013-07-01 05:31:00,66.2,64.1,29.93,NE,37,1.0,2.0,93,0.00,,,0.00,WUHU216DAVISVP2,2013-07-01 09:31:00,
2013-07-01 05:36:00,66.2,64.1,29.93,NE,36,0.0,3.0,93,0.00,,,0.00,WUHU216DAVISVP2,2013-07-01 09:36:00,
2013-07-01 05:41:00,66.2,64.1,29.93,NNW,333,0.0,3.0,93,0.00,,,0.00,WUHU216DAVISVP2,2013-07-01 09:41:00,
2013-07-01 05:46:00,66.2,64.1,29.93,NE,41,1.0,3.0,93,0.00,,,0.00,WUHU216DAVISVP2,2013-07-01 09:46:00,
2013-07-01 05:51:00,66.2,64.1,29.94,NW,314,0.0,3.0,93,0.00,,,0.00,WUHU216DAVISVP2,2013-07-01 09:51:00,
2013-07-01 05:56:00,66.2,64.1,29.94,NW,314,0.0,2.0,93,0.00,,,0.00,WUHU216DAVISVP2,2013-07-01 09:56:00,
2013-07-01 06:01:00,66.2,64.1,29.94,NNW,333,0.0,2.0,93,0.00,,,0.00,WUHU216DAVISVP2,2013-07-01 10:01:00,
2013-07-01 06:06:00,66.2,64.1,29.94,NNW,328,1.0,1.0,93,0.00,,,0.00,WUHU216DAVISVP2,2013-07-01 10:06:00,
2013-07-01 06:11:00,66.2,64.1,29.94,NNW,329,1.0,1.0,93,0.00,,,0.00,WUHU216DAVISVP2,2013-07-01 10:11:00,
2013-07-01 06:16:00,66.2,64.1,29.94,NNW,334,2.0,2.0,93,0.00,,,0.00,WUHU216DAVISVP2,2013-07-01 10:16:00,
2013-07-01 06:21:00,66.2,64.1,29.94,NNW,342,1.0,3.0,93,0.00,,,0.00,WUHU216DAVISVP2,2013-07-01 10:21:00,
2013-07-01 06:26:00,66.2,64.1,29.94,NNW,331,0.0,4.0,93,0.00,,,0.00,WUHU216DAVISVP2,2013-07-01 10:26:00,
2013-07-01 06:31:00,66.2,64.1,29.94,NNE,25,0.0,4.0,93,0.00,,,0.00,WUHU216DAVISVP2,2013-07-01 10:31:00,
2013-07-01 06:36:00,66.2,64.1,29.95,NNW,331,1.0,4.0,93,0.00,,,0.00,WUHU216DAVISVP2,2013-07-01 10:36:00,
2013-07-01 06:41:00,66.2,64.1,29.94,NW,326,0.0,4.0,93,0.00,,,0.00,WUHU216DAVISVP2,2013-07-01 10:41:00,
2013-07-01 06:46:00,66.2,64.1,29.95,North,6,0.0,3.0,93,0.00,,,0.00,WUHU216DAVISVP2,2013-07-01 10:46:00,
2013-07-01 06:51:00,66.3,64.2,29.95,NE,48,0.0,3.0,93,0.00,,,0.00,WUHU216DAVISVP2,2013-07-01 10:51:00,
2013-07-01 06:56:00,66.4,64.3,29.95,NNW,331,1.0,3.0,93,0.00,,,0.00,WUHU216DAVISVP2,2013-07-01 10:56:00,
2013-07-01 07:01:00,66.4,64.0,29.95,NW,314,1.0,4.0,92,0.00,,,0.00,WUHU216DAVISVP2,2013-07-01 11:01:00,
2013-07-01 07:06:00,66.4,64.0,29.94,NNE,15,1.0,6.0,92,0.00,,,0.00,WUHU216DAVISVP2,2013-07-01 11:06:00,
2013-07-01 07:11:00,66.4,64.0,29.93,NE,44,2.0,6.0,92,0.00,,,0.00,WUHU216DAVISVP2,2013-07-01 11:11:00,
2013-07-01 07:16:00,66.4,64.0,29.93,ENE,58,1.0,6.0,92,0.00,,,0.00,WUHU216DAVISVP2,2013-07-01 11:16:00,
2013-07-01 07:21:00,66.4,64.0,29.94,NW,314,1.0,6.0,92,0.00,,,0.00,WUHU216DAVISVP2,2013-07-01 11:21:00,
2013-07-01 07:26:00,66.3,63.9,29.94,NNE,13,4.0,5.0,92,0.00,,,0.00,WUHU216DAVISVP2,2013-07-01 11:26:00,
2013-07-01 07:31:00,66.3,63.9,29.94,NE,41,2.0,5.0,92,0.00,,,0.00,WUHU216DAVISVP2,2013-07-01 11:31:00,
2013-07-01 07:36:00,66.4,64.0,29.94,NE,44,2.0,5.0,92,0.00,,,0.00,WUHU216DAVISVP2,2013-07-01 11:36:00,
2013-07-01 07:41:00,66.4,64.0,29.94,NNE,28,2.0,7.0,92,0.00,,,0.00,WUHU216DAVISVP2,2013-07-01 11:41:00,
2013-07-01 07:46:00,66.4,64.3,29.94,North,360,0.0,7.0,93,0.00,,,0.00,WUHU216DAVISVP2,2013-07-01 11:46:00,
2013-07-01 07:51:00,66.5,64.1,29.95,North,5,0.0,6.0,92,0.00,,,0.00,WUHU216DAVISVP2,2013-07-01 11:51:00,
2013-07-01 07:56:00,66.6,64.2,29.95,NE,39,4.0,6.0,92,0.00,,,0.00,WUHU216DAVISVP2,2013-07-01 11:56:00,
2013-07-01 08:01:00,66.7,64.3,29.95,NNW,342,2.0,5.0,92,0.00,,,0.00,WUHU216DAVISVP2,2013-07-01 12:01:00,
2013-07-01 08:06:00,66.8,64.4,29.95,NE,39,0.0,5.0,92,0.00,,,0.00,WUHU216DAVISVP2,2013-07-01 12:06:00,
2013-07-01 08:11:00,66.8,64.1,29.95,NE,40,2.0,5.0,91,0.00,,,0.00,WUHU216DAVISVP2,2013-07-01 12:11:00,
2013-07-01 08:16:00,66.8,64.4,29.96,NE,39,1.0,5.0,92,0.00,,,0.00,WUHU216DAVISVP2,2013-07-01 12:16:00,
2013-07-01 08:21:00,66.9,64.5,29.96,North,356,0.0,4.0,92,0.00,,,0.00,WUHU216DAVISVP2,2013-07-01 12:21:00,
2013-07-01 08:26:00,66.9,64.5,29.96,NNE,32,0.0,4.0,92,0.00,,,0.00,WUHU216DAVISVP2,2013-07-01 12:26:00,
2013-07-01 08:31:00,67.1,64.7,29.96,North,360,2.0,4.0,92,0.00,,,0.00,WUHU216DAVISVP2,2013-07-01 12:31:00,
2013-07-01 08:36:00,67.1,64.4,29.96,NNW,327,0.0,3.0,91,0.00,,,0.00,WUHU216DAVISVP2,2013-07-01 12:36:00,
2013-07-01 08:41:00,67.1,64.7,29.96,NNW,330,1.0,3.0,92,0.00,,,0.00,WUHU216DAVISVP2,2013-07-01 12:41:00,
2013-07-01 08:46:00,67.3,64.9,29.96,NW,317,3.0,4.0,92,0.00,,,0.00,WUHU216DAVISVP2,2013-07-01 12:46:00,
2013-07-01 08:51:00,67.4,65.0,29.96,NNE,25,2.0,4.0,92,0.00,,,0.00,WUHU216DAVISVP2,2013-07-01 12:51:00,
2013-07-01 08:56:00,67.5,64.8,29.96,North,360,0.0,4.0,91,0.00,,,0.00,WUHU216DAVISVP2,2013-07-01 12:56:00,
2013-07-01 09:02:00,67.5,64.8,29.97,North,356,0.0,4.0,91,0.00,,,0.00,WUHU216DAVISVP2,2013-07-01 13:02:00,
2013-07-01 09:07:00,67.5,64.4,29.97,NE,34,1.0,6.0,90,0.00,,,0.00,WUHU216DAVISVP2,2013-07-01 13:07:00,
2013-07-01 09:12:00,67.6,64.9,29.97,NNW,345,1.0,6.0,91,0.00,,,0.00,WUHU216DAVISVP2,2013-07-01 13:12:00,
2013-07-01 09:17:00,67.7,64.6,29.96,North,349,2.0,6.0,90,0.00,,,0.00,WUHU216DAVISVP2,2013-07-01 13:17:00,
2013-07-01 09:22:00,67.8,64.7,29.96,NW,322,3.0,6.0,90,0.00,,,0.00,WUHU216DAVISVP2,2013-07-01 13:22:00,
2013-07-01 09:27:00,68.0,64.9,29.96,ENE,74,0.0,6.0,90,0.00,,,0.00,WUHU216DAVISVP2,2013-07-01 13:27:00,
2013-07-01 09:32:00,68.3,64.9,29.97,NNE,27,2.0,6.0,89,0.00,,,0.00,WUHU216DAVISVP2,2013-07-01 13:32:00,
2013-07-01 09:37:00,68.4,64.7,29.96,NNE,16,3.0,9.0,88,0.00,,,0.00,WUHU216DAVISVP2,2013-07-01 13:37:00,
2013-07-01 09:42:00,68.4,64.7,29.96,North,11,5.0,9.0,88,0.00,,,0.00,WUHU216DAVISVP2,2013-07-01 13:42:00,
2013-07-01 09:47:00,68.8,65.1,29.96,NE,49,1.0,8.0,88,0.00,,,0.00,WUHU216DAVISVP2,2013-07-01 13:47:00,
2013-07-01 09:52:00,69.2,65.2,29.96,NE,37,1.0,8.0,87,0.00,,,0.00,WUHU216DAVISVP2,2013-07-01 13:52:00,
2013-07-01 09:57:00,69.4,65.4,29.96,ESE,114,1.0,6.0,87,0.00,,,0.00,WUHU216DAVISVP2,2013-07-01 13:57:00,
2013-07-01 10:02:00,69.7,66.0,29.96,North,8,4.0,5.0,88,0.00,,,0.00,WUHU216DAVISVP2,2013-07-01 14:02:00,
2013-07-01 10:07:00,69.7,65.7,29.95,NNE,25,4.0,7.0,87,0.00,,,0.00,WUHU216DAVISVP2,2013-07-01 14:07:00,
2013-07-01 10:12:00,69.8,65.8,29.95,NE,43,5.0,8.0,87,0.00,,,0.00,WUHU216DAVISVP2,2013-07-01 14:12:00,
2013-07-01 10:17:00,70.1,66.1,29.95,NNW,338,3.0,8.0,87,0.00,,,0.00,WUHU216DAVISVP2,2013-07-01 14:17:00,
2013-07-01 10:22:00,70.0,65.6,29.95,NNW,345,3.0,8.0,86,0.00,,,0.00,WUHU216DAVISVP2,2013-07-01 14:22:00,
2013-07-01 10:27:00,70.0,66.0,29.95,NNW,329,1.0,11.0,87,0.00,,,0.00,WUHU216DAVISVP2,2013-07-01 14:27:00,
2013-07-01 10:32:00,70.0,66.0,29.95,NNW,328,3.0,11.0,87,0.00,,,0.00,WUHU216DAVISVP2,2013-07-01 14:32:00,
2013-07-01 10:37:00,69.9,65.5,29.95,NW,323,1.0,10.0,86,0.00,,,0.00,WUHU216DAVISVP2,2013-07-01 14:37:00,
2013-07-01 10:42:00,70.0,66.0,29.95,NNW,343,4.0,10.0,87,0.00,,,0.00,WUHU216DAVISVP2,2013-07-01 14:42:00,
2013-07-01 10:47:00,69.9,65.9,29.96,NE,47,3.0,7.0,87,0.00,,,0.00,WUHU216DAVISVP2,2013-07-01 14:47:00,
2013-07-01 10:52:00,69.9,65.5,29.96,West,267,1.0,7.0,86,0.00,,,0.00,WUHU216DAVISVP2,2013-07-01 14:52:00,
2013-07-01 10:57:00,70.0,65.6,29.96,NE,40,4.0,7.0,86,0.00,,,0.00,WUHU216DAVISVP2,2013-07-01 14:57:00,
2013-07-01 11:02:00,70.1,65.7,29.96,ENE,70,3.0,9.0,86,0.00,,,0.00,WUHU216DAVISVP2,2013-07-01 15:02:00,
2013-07-01 11:07:00,70.1,65.4,29.96,NE,49,4.0,9.0,85,0.00,,,0.00,WUHU216DAVISVP2,2013-07-01 15:07:00,
2013-07-01 11:12:00,70.0,65.6,29.96,NE,40,3.0,8.0,86,0.00,,,0.00,WUHU216DAVISVP2,2013-07-01 15:12:00,
2013-07-01 11:17:00,70.1,65.7,29.96,NNE,30,3.0,8.0,86,0.00,,,0.00,WUHU216DAVISVP2,2013-07-01 15:17:00,
2013-07-01 11:22:00,70.3,65.9,29.96,East,82,1.0,7.0,86,0.00,,,0.00,WUHU216DAVISVP2,2013-07-01 15:22:00,
2013-07-01 11:27:00,70.5,66.1,29.97,SE,135,1.0,7.0,86,0.00,,,0.00,WUHU216DAVISVP2,2013-07-01 15:27:00,
2013-07-01 11:32:00,70.6,66.2,29.97,East,90,3.0,6.0,86,0.00,,,0.00,WUHU216DAVISVP2,2013-07-01 15:32:00,
2013-07-01 11:37:00,70.6,65.9,29.96,ESE,102,1.0,6.0,85,0.00,,,0.00,WUHU216DAVISVP2,2013-07-01 15:37:00,
2013-07-01 11:42:00,70.8,66.1,29.96,NNE,27,3.0,7.0,85,0.00,,,0.00,WUHU216DAVISVP2,2013-07-01 15:42:00,
2013-07-01 11:47:00,70.7,66.3,29.96,NNE,30,4.0,7.0,86,0.00,,,0.00,WUHU216DAVISVP2,2013-07-01 15:47:00,
2013-07-01 11:52:00,70.7,66.6,29.96,NNW,327,4.0,7.0,87,0.00,,,0.00,WUHU216DAVISVP2,2013-07-01 15:52:00,
2013-07-01 11:57:00,70.8,67.1,29.96,NNW,335,1.0,7.0,88,0.00,,,0.00,WUHU216DAVISVP2,2013-07-01 15:57:00,
2013-07-01 12:02:00,70.9,66.8,29.96,NNE,32,2.0,7.0,87,0.00,,,0.00,WUHU216DAVISVP2,2013-07-01 16:02:00,
2013-07-01 12:07:00,70.7,66.3,29.96,North,11,4.0,8.0,86,0.00,,,0.00,WUHU216DAVISVP2,2013-07-01 16:07:00,
2013-07-01 12:12:00,70.4,66.4,29.96,NNE,19,4.0,8.0,87,0.00,,,0.00,WUHU216DAVISVP2,2013-07-01 16:12:00,
2013-07-01 12:17:00,70.3,66.6,29.96,NE,41,7.0,8.0,88,0.00,,,0.00,WUHU216DAVISVP2,2013-07-01 16:17:00,
2013-07-01 12:22:00,70.3,66.9,29.97,NNW,345,1.0,8.0,89,0.00,,,0.00,WUHU216DAVISVP2,2013-07-01 16:22:00,
2013-07-01 12:27:00,70.4,67.0,29.96,NNW,329,1.0,7.0,89,0.00,,,0.00,WUHU216DAVISVP2,2013-07-01 16:27:00,
2013-07-01 12:32:00,70.6,67.2,29.96,North,9,2.0,7.0,89,0.00,,,0.00,WUHU216DAVISVP2,2013-07-01 16:32:00,
2013-07-01 12:37:00,70.8,67.4,29.96,NNW,329,2.0,7.0,89,0.00,,,0.00,WUHU216DAVISVP2,2013-07-01 16:37:00,
2013-07-01 12:42:00,71.0,67.3,29.96,NNW,330,3.0,7.0,88,0.00,,,0.00,WUHU216DAVISVP2,2013-07-01 16:42:00,
2013-07-01 12:47:00,71.0,66.9,29.96,North,6,6.0,7.0,87,0.00,,,0.00,WUHU216DAVISVP2,2013-07-01 16:47:00,
2013-07-01 12:52:00,70.9,67.2,29.96,NNE,18,5.0,7.0,88,0.00,,,0.00,WUHU216DAVISVP2,2013-07-01 16:52:00,
2013-07-01 12:57:00,70.9,67.5,29.95,NNW,328,4.0,9.0,89,0.00,,,0.00,WUHU216DAVISVP2,2013-07-01 16:57:00,
2013-07-01 13:02:00,71.0,67.3,29.95,NE,44,1.0,9.0,88,0.00,,,0.00,WUHU216DAVISVP2,2013-07-01 17:02:00,
2013-07-01 13:07:00,70.9,67.2,29.96,NE,49,6.0,9.0,88,0.00,,,0.00,WUHU216DAVISVP2,2013-07-01 17:07:00,
2013-07-01 13:12:00,70.8,67.1,29.96,NE,34,4.0,9.0,88,0.00,,,0.00,WUHU216DAVISVP2,2013-07-01 17:12:00,
2013-07-01 13:17:00,70.8,67.4,29.96,NE,51,4.0,8.0,89,0.00,,,0.00,WUHU216DAVISVP2,2013-07-01 17:17:00,
2013-07-01 13:22:00,70.7,67.3,29.96,NNE,23,6.0,8.0,89,0.00,,,0.00,WUHU216DAVISVP2,2013-07-01 17:22:00,
2013-07-01 13:27:00,70.6,67.2,29.96,NNE,23,2.0,8.0,89,0.00,,,0.00,WUHU216DAVISVP2,2013-07-01 17:27:00,
2013-07-01 13:32:00,70.7,67.3,29.96,NNE,30,2.0,8.0,89,0.00,,,0.00,WUHU216DAVISVP2,2013-07-01 17:32:00,
2013-07-01 13:37:00,70.7,67.6,29.96,NNE,13,1.0,7.0,90,0.00,,,0.00,WUHU216DAVISVP2,2013-07-01 17:37:00,
2013-07-01 13:42:00,70.7,67.6,29.95,NNE,19,1.0,7.0,90,0.00,,,0.00,WUHU216DAVISVP2,2013-07-01 17:42:00,
2013-07-01 13:47:00,70.5,67.4,29.95,NE,43,4.0,9.0,90,0.00,,,0.00,WUHU216DAVISVP2,2013-07-01 17:47:00,
2013-07-01 13:52:00,70.5,67.4,29.95,North,4,0.0,9.0,90,0.00,,,0.00,WUHU216DAVISVP2,2013-07-01 17:52:00,
2013-07-01 13:57:00,70.5,67.7,29.95,NNW,343,1.0,8.0,91,0.00,,,0.00,WUHU216DAVISVP2,2013-07-01 17:57:00,
2013-07-01 14:02:00,70.3,67.8,29.95,North,11,1.0,8.0,92,0.01,,,0.01,WUHU216DAVISVP2,2013-07-01 18:02:00,
2013-07-01 14:07:00,70.1,67.7,29.95,NNW,328,2.0,8.0,92,0.01,,,0.01,WUHU216DAVISVP2,2013-07-01 18:07:00,
2013-07-01 14:12:00,70.0,67.9,29.95,NW,304,2.0,7.0,93,0.02,,,0.02,WUHU216DAVISVP2,2013-07-01 18:12:00,
2013-07-01 14:17:00,69.8,67.7,29.95,NNW,335,2.0,7.0,93,0.02,,,0.02,WUHU216DAVISVP2,2013-07-01 18:17:00,
2013-07-01 14:22:00,69.7,67.9,29.95,NNW,335,2.0,5.0,94,0.02,,,0.02,WUHU216DAVISVP2,2013-07-01 18:22:00,
2013-07-01 14:27:00,69.7,67.9,29.95,NNW,335,2.0,5.0,94,0.02,,,0.02,WUHU216DAVISVP2,2013-07-01 18:27:00,
2013-07-01 14:32:00,69.6,67.8,29.95,NW,308,3.0,6.0,94,0.03,,,0.03,WUHU216DAVISVP2,2013-07-01 18:32:00,
2013-07-01 14:37:00,69.4,67.6,29.95,NNW,327,2.0,6.0,94,0.03,,,0.03,WUHU216DAVISVP2,2013-07-01 18:37:00,
2013-07-01 14:42:00,69.3,67.8,29.95,NW,314,2.0,6.0,95,0.03,,,0.03,WUHU216DAVISVP2,2013-07-01 18:42:00,
2013-07-01 14:47:00,69.4,67.9,29.95,NW,321,0.0,6.0,95,0.04,,,0.04,WUHU216DAVISVP2,2013-07-01 18:47:00,
2013-07-01 14:52:00,69.2,67.7,29.96,NNW,333,0.0,5.0,95,0.04,,,0.04,WUHU216DAVISVP2,2013-07-01 18:52:00,
2013-07-01 14:57:00,69.2,67.7,29.96,WNW,292,0.0,4.0,95,0.05,,,0.05,WUHU216DAVISVP2,2013-07-01 18:57:00,
2013-07-01 15:02:00,69.3,68.1,29.96,North,360,0.0,4.0,96,0.05,,,0.06,WUHU216DAVISVP2,2013-07-01 19:02:00,
2013-07-01 15:07:00,69.3,67.8,29.96,NW,326,2.0,6.0,95,0.05,,,0.06,WUHU216DAVISVP2,2013-07-01 19:07:00,
2013-07-01 15:12:00,69.2,68.0,29.96,NW,311,1.0,6.0,96,0.05,,,0.07,WUHU216DAVISVP2,2013-07-01 19:12:00,
2013-07-01 15:17:00,69.3,68.1,29.96,NNW,333,0.0,6.0,96,0.06,,,0.08,WUHU216DAVISVP2,2013-07-01 19:17:00,
2013-07-01 15:22:00,69.2,68.0,29.96,NNW,328,0.0,6.0,96,0.07,,,0.09,WUHU216DAVISVP2,2013-07-01 19:22:00,
2013-07-01 15:27:00,69.1,67.9,29.96,NW,323,0.0,4.0,96,0.08,,,0.10,WUHU216DAVISVP2,2013-07-01 19:27:00,
2013-07-01 15:32:00,69.1,67.9,29.95,North,349,2.0,2.0,96,0.09,,,0.12,WUHU216DAVISVP2,2013-07-01 19:32:00,
2013-07-01 15:37:00,69.0,67.8,29.95,NW,307,0.0,3.0,96,0.10,,,0.13,WUHU216DAVISVP2,2013-07-01 19:37:00,
2013-07-01 15:42:00,68.9,68.0,29.95,NW,316,1.0,3.0,97,0.11,,,0.14,WUHU216DAVISVP2,2013-07-01 19:42:00,
2013-07-01 15:47:00,69.0,68.1,29.95,NNE,25,2.0,5.0,97,0.11,,,0.15,WUHU216DAVISVP2,2013-07-01 19:47:00,
2013-07-01 15:52:00,69.0,68.1,29.95,NNW,330,1.0,5.0,97,0.12,,,0.16,WUHU216DAVISVP2,2013-07-01 19:52:00,
2013-07-01 15:57:00,68.9,68.0,29.95,NNW,336,1.0,5.0,97,0.12,,,0.17,WUHU216DAVISVP2,2013-07-01 19:57:00,
2013-07-01 16:02:00,68.8,67.9,29.95,NNE,20,0.0,5.0,97,0.12,,,0.18,WUHU216DAVISVP2,2013-07-01 20:02:00,
2013-07-01 16:07:00,68.7,67.8,29.95,NNW,342,0.0,5.0,97,0.13,,,0.19,WUHU216DAVISVP2,2013-07-01 20:07:00,
2013-07-01 16:12:00,68.6,67.7,29.95,NNW,345,1.0,3.0,97,0.13,,,0.20,WUHU216DAVISVP2,2013-07-01 20:12:00,
2013-07-01 16:17:00,68.5,67.6,29.95,NW,323,4.0,4.0,97,0.13,,,0.21,WUHU216DAVISVP2,2013-07-01 20:17:00,
2013-07-01 16:22:00,68.5,67.6,29.95,NNE,12,0.0,4.0,97,0.13,,,0.22,WUHU216DAVISVP2,2013-07-01 20:22:00,
2013-07-01 16:27:00,68.5,67.6,29.94,NNW,329,3.0,4.0,97,0.13,,,0.23,WUHU216DAVISVP2,2013-07-01 20:27:00,
2013-07-01 16:32:00,68.6,67.7,29.94,NNW,330,4.0,5.0,97,0.12,,,0.24,WUHU216DAVISVP2,2013-07-01 20:32:00,
2013-07-01 16:37:00,68.6,67.7,29.94,NW,322,0.0,5.0,97,0.11,,,0.24,WUHU216DAVISVP2,2013-07-01 20:37:00,
2013-07-01 16:42:00,68.6,67.7,29.94,NNW,342,2.0,6.0,97,0.10,,,0.24,WUHU216DAVISVP2,2013-07-01 20:42:00,
2013-07-01 16:47:00,68.6,67.7,29.94,North,360,2.0,6.0,97,0.09,,,0.24,WUHU216DAVISVP2,2013-07-01 20:47:00,
2013-07-01 16:52:00,68.5,67.6,29.94,North,4,2.0,5.0,97,0.08,,,0.24,WUHU216DAVISVP2,2013-07-01 20:52:00,
2013-07-01 16:57:00,68.5,67.6,29.94,NE,49,0.0,5.0,97,0.07,,,0.24,WUHU216DAVISVP2,2013-07-01 20:57:00,
2013-07-01 17:02:00,68.6,67.7,29.95,NNW,329,2.0,5.0,97,0.06,,,0.24,WUHU216DAVISVP2,2013-07-01 21:02:00,
2013-07-01 17:07:00,68.6,67.7,29.95,NE,46,0.0,5.0,97,0.05,,,0.24,WUHU216DAVISVP2,2013-07-01 21:07:00,
2013-07-01 17:12:00,68.7,67.8,29.95,NNW,339,2.0,5.0,97,0.04,,,0.24,WUHU216DAVISVP2,2013-07-01 21:12:00,
2013-07-01 17:17:00,68.7,67.8,29.94,NW,319,1.0,6.0,97,0.03,,,0.24,WUHU216DAVISVP2,2013-07-01 21:17:00,
2013-07-01 17:22:00,68.8,67.9,29.95,NNW,334,4.0,6.0,97,0.02,,,0.24,WUHU216DAVISVP2,2013-07-01 21:22:00,
2013-07-01 17:27:00,68.8,67.9,29.94,NW,314,1.0,6.0,97,0.02,,,0.25,WUHU216DAVISVP2,2013-07-01 21:27:00,
2013-07-01 17:33:00,68.9,68.0,29.94,NNW,339,1.0,6.0,97,0.01,,,0.25,WUHU216DAVISVP2,2013-07-01 21:33:00,
2013-07-01 17:39:00,69.0,68.1,29.94,North,353,2.0,5.0,97,0.01,,,0.25,WUHU216DAVISVP2,2013-07-01 21:39:00,
2013-07-01 17:46:00,69.0,68.1,29.94,NW,323,0.0,5.0,97,0.01,,,0.25,WUHU216DAVISVP2,2013-07-01 21:46:00,
2013-07-01 17:51:00,69.0,68.1,29.94,NE,39,7.0,7.0,97,0.01,,,0.25,WUHU216DAVISVP2,2013-07-01 21:51:00,
2013-07-01 18:01:00,68.9,68.0,29.94,NE,44,9.0,10.0,97,0.02,,,0.26,WUHU216DAVISVP2,2013-07-01 22:01:00,
2013-07-01 18:09:00,68.9,68.0,29.94,NE,46,3.0,10.0,97,0.02,,,0.26,WUHU216DAVISVP2,2013-07-01 22:09:00,
2013-07-01 18:14:00,68.8,67.9,29.94,NNE,26,4.0,9.0,97,0.02,,,0.26,WUHU216DAVISVP2,2013-07-01 22:14:00,
2013-07-01 18:21:00,68.8,67.9,29.95,NE,39,3.0,10.0,97,0.03,,,0.27,WUHU216DAVISVP2,2013-07-01 22:21:00,
2013-07-01 18:26:00,68.7,67.8,29.95,NNE,12,2.0,9.0,97,0.03,,,0.27,WUHU216DAVISVP2,2013-07-01 22:26:00,
2013-07-01 18:32:00,68.6,67.7,29.95,NE,37,4.0,9.0,97,0.02,,,0.27,WUHU216DAVISVP2,2013-07-01 22:32:00,
2013-07-01 18:38:00,68.5,67.6,29.96,NNW,343,4.0,7.0,97,0.02,,,0.27,WUHU216DAVISVP2,2013-07-01 22:38:00,
2013-07-01 18:44:00,68.4,67.5,29.95,NE,34,6.0,11.0,97,0.02,,,0.27,WUHU216DAVISVP2,2013-07-01 22:44:00,
2013-07-01 18:49:00,68.4,67.5,29.95,NNE,32,12.0,14.0,97,0.03,,,0.28,WUHU216DAVISVP2,2013-07-01 22:49:00,
2013-07-01 18:56:00,68.3,67.4,29.96,NE,49,4.0,14.0,97,0.03,,,0.29,WUHU216DAVISVP2,2013-07-01 22:56:00,
2013-07-01 19:02:00,68.3,67.4,29.96,ENE,58,1.0,14.0,97,0.03,,,0.29,WUHU216DAVISVP2,2013-07-01 23:02:00,
2013-07-01 19:09:00,68.3,67.7,29.97,NW,322,3.0,8.0,98,0.03,,,0.29,WUHU216DAVISVP2,2013-07-01 23:09:00,
2013-07-01 19:14:00,68.3,67.4,29.97,NNE,13,2.0,6.0,97,0.03,,,0.29,WUHU216DAVISVP2,2013-07-01 23:14:00,
2013-07-01 19:20:00,68.2,67.6,29.97,NW,320,3.0,6.0,98,0.02,,,0.29,WUHU216DAVISVP2,2013-07-01 23:20:00,
2013-07-01 19:25:00,68.2,67.6,29.96,West,278,0.0,6.0,98,0.03,,,0.30,WUHU216DAVISVP2,2013-07-01 23:25:00,
2013-07-01 19:31:00,68.2,67.6,29.97,North,6,2.0,6.0,98,0.04,,,0.31,WUHU216DAVISVP2,2013-07-01 23:31:00,
2013-07-01 19:36:00,68.2,67.6,29.96,NNE,30,3.0,5.0,98,0.06,,,0.33,WUHU216DAVISVP2,2013-07-01 23:36:00,
2013-07-01 19:42:00,68.2,67.6,29.96,North,352,1.0,5.0,98,0.07,,,0.34,WUHU216DAVISVP2,2013-07-01 23:42:00,
2013-07-01 19:48:00,68.2,67.6,29.96,NNE,32,0.0,5.0,98,0.06,,,0.34,WUHU216DAVISVP2,2013-07-01 23:48:00,
2013-07-01 19:53:00,68.2,67.6,29.96,North,9,0.0,4.0,98,0.05,,,0.34,WUHU216DAVISVP2,2013-07-01 23:53:00,
2013-07-01 19:59:00,68.1,67.5,29.97,NW,319,0.0,3.0,98,0.05,,,0.34,WUHU216DAVISVP2,2013-07-01 23:59:00,
2013-07-01 20:04:00,68.1,67.5,29.97,North,4,0.0,4.0,98,0.05,,,0.34,WUHU216DAVISVP2,2013-07-02 00:04:00,
2013-07-01 20:10:00,68.0,67.4,29.97,NW,322,1.0,4.0,98,0.05,,,0.34,WUHU216DAVISVP2,2013-07-02 00:10:00,
2013-07-01 20:15:00,67.9,67.3,29.97,NNE,13,0.0,4.0,98,0.05,,,0.34,WUHU216DAVISVP2,2013-07-02 00:15:00,
2013-07-01 20:20:00,67.9,67.3,29.97,NNW,327,1.0,4.0,98,0.05,,,0.34,WUHU216DAVISVP2,2013-07-02 00:20:00,
2013-07-01 20:25:00,67.9,67.3,29.97,NNW,329,1.0,3.0,98,0.04,,,0.34,WUHU216DAVISVP2,2013-07-02 00:25:00,
2013-07-01 20:30:00,67.9,67.3,29.98,NW,314,0.0,4.0,98,0.03,,,0.34,WUHU216DAVISVP2,2013-07-02 00:30:00,
2013-07-01 20:36:00,67.8,67.2,29.98,NNW,327,2.0,4.0,98,0.01,,,0.34,WUHU216DAVISVP2,2013-07-02 00:36:00,
2013-07-01 20:41:00,67.8,67.2,29.98,NW,319,2.0,4.0,98,0.00,,,0.34,WUHU216DAVISVP2,2013-07-02 00:41:00,
2013-07-01 20:46:00,67.7,67.1,29.98,NW,323,1.0,4.0,98,0.00,,,0.34,WUHU216DAVISVP2,2013-07-02 00:46:00,
2013-07-01 20:51:00,67.7,67.1,29.98,NNW,328,2.0,4.0,98,0.00,,,0.34,WUHU216DAVISVP2,2013-07-02 00:51:00,
2013-07-01 20:56:00,67.7,67.1,29.98,NW,325,1.0,4.0,98,0.00,,,0.34,WUHU216DAVISVP2,2013-07-02 00:56:00,
2013-07-01 21:01:00,67.6,67.0,29.98,NNE,17,0.0,4.0,98,0.00,,,0.34,WUHU216DAVISVP2,2013-07-02 01:01:00,
2013-07-01 21:06:00,67.5,66.9,29.98,North,9,2.0,4.0,98,0.00,,,0.34,WUHU216DAVISVP2,2013-07-02 01:06:00,
2013-07-01 21:11:00,67.5,66.9,29.98,North,360,1.0,4.0,98,0.00,,,0.34,WUHU216DAVISVP2,2013-07-02 01:11:00,
2013-07-01 21:16:00,67.4,66.8,29.99,North,355,1.0,4.0,98,0.00,,,0.34,WUHU216DAVISVP2,2013-07-02 01:16:00,
2013-07-01 21:22:00,67.4,66.8,29.99,NW,307,1.0,4.0,98,0.00,,,0.34,WUHU216DAVISVP2,2013-07-02 01:22:00,
2013-07-01 21:27:00,67.3,66.7,29.99,North,355,2.0,4.0,98,0.00,,,0.34,WUHU216DAVISVP2,2013-07-02 01:27:00,
2013-07-01 21:32:00,67.3,66.7,29.99,NW,314,2.0,5.0,98,0.00,,,0.34,WUHU216DAVISVP2,2013-07-02 01:32:00,
2013-07-01 21:37:00,67.2,66.6,30.00,NNW,345,1.0,5.0,98,0.00,,,0.34,WUHU216DAVISVP2,2013-07-02 01:37:00,
2013-07-01 21:42:00,67.1,66.5,30.00,North,355,1.0,6.0,98,0.00,,,0.34,WUHU216DAVISVP2,2013-07-02 01:42:00,
2013-07-01 21:48:00,67.0,66.4,30.00,North,351,0.0,6.0,98,0.00,,,0.34,WUHU216DAVISVP2,2013-07-02 01:48:00,
2013-07-01 21:53:00,66.9,66.3,30.00,NW,319,0.0,6.0,98,0.00,,,0.34,WUHU216DAVISVP2,2013-07-02 01:53:00,
2013-07-01 21:59:00,66.8,66.2,30.00,NW,319,0.0,3.0,98,0.00,,,0.34,WUHU216DAVISVP2,2013-07-02 01:59:00,
2013-07-01 22:04:00,66.6,66.0,30.01,NNW,328,3.0,3.0,98,0.00,,,0.34,WUHU216DAVISVP2,2013-07-02 02:04:00,
2013-07-01 22:09:00,66.5,65.9,30.01,NNW,336,4.0,4.0,98,0.00,,,0.34,WUHU216DAVISVP2,2013-07-02 02:09:00,
2013-07-01 22:14:00,66.2,65.6,30.01,North,6,2.0,4.0,98,0.00,,,0.34,WUHU216DAVISVP2,2013-07-02 02:14:00,
2013-07-01 22:19:00,66.1,65.5,30.01,NNW,332,3.0,4.0,98,0.00,,,0.34,WUHU216DAVISVP2,2013-07-02 02:19:00,
2013-07-01 22:24:00,65.9,65.3,30.01,SW,228,2.0,4.0,98,0.00,,,0.34,WUHU216DAVISVP2,2013-07-02 02:24:00,
2013-07-01 22:29:00,65.8,65.2,30.00,NW,305,2.0,4.0,98,0.00,,,0.34,WUHU216DAVISVP2,2013-07-02 02:29:00,
2013-07-01 22:34:00,65.6,65.0,30.00,NW,322,0.0,4.0,98,0.01,,,0.35,WUHU216DAVISVP2,2013-07-02 02:34:00,
2013-07-01 22:39:00,65.5,64.9,30.00,North,351,0.0,4.0,98,0.01,,,0.35,WUHU216DAVISVP2,2013-07-02 02:39:00,
2013-07-01 22:44:00,65.3,64.7,30.00,North,357,0.0,5.0,98,0.01,,,0.35,WUHU216DAVISVP2,2013-07-02 02:44:00,
2013-07-01 22:49:00,65.2,64.6,30.00,North,349,0.0,5.0,98,0.01,,,0.35,WUHU216DAVISVP2,2013-07-02 02:49:00,
2013-07-01 22:55:00,65.0,64.4,30.00,North,353,1.0,5.0,98,0.02,,,0.36,WUHU216DAVISVP2,2013-07-02 02:55:00,
2013-07-01 23:00:00,65.0,64.4,30.00,NW,325,3.0,4.0,98,0.02,,,0.36,WUHU216DAVISVP2,2013-07-02 03:00:00,
2013-07-01 23:06:00,64.9,64.3,30.00,WNW,300,0.0,4.0,98,0.02,,,0.36,WUHU216DAVISVP2,2013-07-02 03:06:00,
2013-07-01 23:10:00,64.7,64.1,30.00,NW,323,3.0,4.0,98,0.02,,,0.36,WUHU216DAVISVP2,2013-07-02 03:10:00,
2013-07-01 23:16:00,64.7,64.1,30.00,WNW,290,1.0,4.0,98,0.02,,,0.36,WUHU216DAVISVP2,2013-07-02 03:16:00,
2013-07-01 23:22:00,64.7,64.1,30.00,NNW,340,2.0,3.0,98,0.02,,,0.36,WUHU216DAVISVP2,2013-07-02 03:22:00,
2013-07-01 23:27:00,64.5,63.9,30.00,North,349,0.0,3.0,98,0.02,,,0.36,WUHU216DAVISVP2,2013-07-02 03:27:00,
2013-07-01 23:32:00,64.5,63.9,30.00,West,280,1.0,3.0,98,0.02,,,0.36,WUHU216DAVISVP2,2013-07-02 03:32:00,
2013-07-01 23:37:00,64.4,63.8,30.00,WNW,291,3.0,3.0,98,0.01,,,0.36,WUHU216DAVISVP2,2013-07-02 03:37:00,
2013-07-01 23:42:00,64.3,63.7,30.00,WNW,294,1.0,3.0,98,0.01,,,0.36,WUHU216DAVISVP2,2013-07-02 03:42:00,
2013-07-01 23:47:00,64.3,63.7,30.01,NNW,338,1.0,3.0,98,0.01,,,0.36,WUHU216DAVISVP2,2013-07-02 03:47:00,
2013-07-01 23:54:00,64.3,63.7,30.01,WNW,288,1.0,3.0,98,0.00,,,0.36,WUHU216DAVISVP2,2013-07-02 03:54:00,
2013-07-01 23:59:00,64.2,63.6,30.01,WSW,256,4.0,5.0,98,0.00,,,0.36,WUHU216DAVISVP2,2013-07-02 03:59:00,